Location: Bannatyne
(13.0833°N, 59.5333°W)
Time: 14:36:01
(UTC+00:00)

Transit 2A - Pass Details

Date: 30 January 2020
Orbit: 599 x 959 km, 66.7° (Epoch: 28 February)

Event Time Altitude Azimuth Distance (km) Brightness Sun altitude
Rises 08:52:05 0° 335° (NNW) 3,199 - -22.5°
Reaches altitude 10° 08:54:22 10° 333° (NNW) 2,328 - -22.0°
Exits shadow 08:57:28 36° 323° (NW) 1,262 6.7 -21.3°
Maximum altitude 08:59:43 69° 250° (WSW) 892 6.1 -20.7°
Drops below altitude 10° 09:05:37 10° 167° (SSE) 2,561 9.0 -19.4°
Sets 09:08:15 0° 165° (SSE) 3,542 9.8 -18.7°
